| time (UTC) | temp F | wind direction | speed MPH | gust MPH | rain 1hr in | rain 24hr in | rain mn in | humidity % | barometer mb |
| 20260505124631 | 55 | 40 | 0.0 | 2.0 | 0.00 | 0.41 | 0.41 | 99 | 1005.6 |
| 20260505124127 | 55 | 28 | 2.0 | 2.0 | 0.00 | 0.41 | 0.41 | 99 | 1005.3 |
| 20260505123623 | 55 | 54 | 1.0 | 6.0 | 0.00 | 0.41 | 0.41 | 99 | 1005.0 |
| 20260505123120 | 55 | 43 | 3.0 | 5.0 | 0.00 | 0.41 | 0.41 | 99 | 1004.9 |
| 20260505122617 | 55 | 30 | 0.0 | 2.0 | 0.00 | 0.41 | 0.41 | 99 | 1004.9 |
| 20260505122114 | 55 | 30 | 3.0 | 6.0 | 0.00 | 0.41 | 0.41 | 99 | 1005.1 |
| 20260505121610 | 55 | 37 | 0.0 | 1.0 | 0.00 | 0.41 | 0.41 | 99 | 1005.3 |
| 20260505121107 | 56 | 37 | 3.0 | 5.0 | 0.00 | 0.41 | 0.41 | 99 | 1004.9 |
| 20260505120604 | 56 | 34 | 0.0 | 2.0 | 0.00 | 0.41 | 0.41 | 99 | 1004.5 |
| 20260505120059 | 56 | 49 | 0.0 | 3.0 | 0.00 | 0.41 | 0.41 | 99 | 1004.3 |
| 20260505115554 | 56 | 52 | 1.0 | 2.0 | 0.00 | 0.41 | 0.41 | 99 | 1004.3 |
| 20260505115052 | 57 | 49 | 1.0 | 3.0 | 0.00 | 0.41 | 0.41 | 99 | 1004.2 |
| 20260505114548 | 57 | 30 | 1.0 | 2.0 | 0.00 | 0.41 | 0.41 | 99 | 1004.1 |
| 20260505114045 | 57 | 35 | 2.0 | 3.0 | 0.00 | 0.41 | 0.41 | 99 | 1004.1 |
| 20260505113541 | 57 | 37 | 0.0 | 0.0 | 0.00 | 0.41 | 0.41 | 99 | 1004.2 |
| 20260505113038 | 58 | 29 | 3.0 | 5.0 | 0.00 | 0.41 | 0.41 | 99 | 1004.2 |
| 20260505112534 | 58 | 35 | 1.0 | 1.0 | 0.00 | 0.41 | 0.41 | 99 | 1004.1 |
| 20260505112033 | 59 | 34 | 0.0 | 1.0 | 0.00 | 0.41 | 0.41 | 99 | 1004.0 |
| 20260505111532 | 59 | 19 | 1.0 | 3.0 | 0.00 | 0.41 | 0.41 | 99 | 1003.8 |
| 20260505111028 | 59 | 24 | 0.0 | 1.0 | 0.00 | 0.41 | 0.41 | 99 | 1003.5 |
| 20260505110525 | 60 | 24 | 0.0 | 1.0 | 0.00 | 0.41 | 0.41 | 99 | 1003.6 |
| 20260505101957 | 61 | 14 | 0.0 | 1.0 | 0.00 | 0.41 | 0.41 | 99 | 1004.0 |
| 20260505101450 | 61 | 12 | 0.0 | 1.0 | 0.00 | 0.41 | 0.41 | 99 | 1003.9 |
| 20260505100946 | 61 | 11 | 0.0 | 1.0 | 0.00 | 0.41 | 0.41 | 99 | 1003.8 |
| 20260505100444 | 61 | 11 | 1.0 | 2.0 | 0.00 | 0.41 | 0.41 | 98 | 1004.1 |
| 20260505095939 | 61 | 11 | 0.0 | 0.0 | 0.00 | 0.41 | 0.41 | 98 | 1004.0 |
| 20260505095436 | 61 | 10 | 0.0 | 1.0 | 0.00 | 0.41 | 0.41 | 98 | 1004.2 |
| 20260505094932 | 61 | 359 | 1.0 | 2.0 | 0.00 | 0.41 | 0.41 | 98 | 1004.3 |
| 20260505094429 | 61 | 298 | 0.0 | 2.0 | 0.00 | 0.41 | 0.41 | 98 | 1004.4 |
| 20260505093925 | 61 | 320 | 0.0 | 2.0 | 0.00 | 0.41 | 0.41 | 98 | 1003.8 |
| 20260505093422 | 61 | 299 | 2.0 | 5.0 | 0.07 | 0.41 | 0.41 | 98 | 1003.9 |
| 20260505092920 | 61 | 305 | 1.0 | 1.0 | 0.07 | 0.41 | 0.41 | 98 | 1003.3 |
| 20260505092417 | 61 | 276 | 0.0 | 0.0 | 0.00 | 0.40 | 0.40 | 98 | 1003.6 |
| 20260505091914 | 61 | 276 | 0.0 | 0.0 | 0.00 | 0.40 | 0.40 | 98 | 1003.3 |
| 20260505091412 | 61 | 274 | 0.0 | 1.0 | 0.00 | 0.40 | 0.40 | 98 | 1003.2 |
| 20260505090910 | 61 | 251 | 0.0 | 0.0 | 0.05 | 0.40 | 0.40 | 98 | 1003.0 |
| 20260505090408 | 62 | 222 | 0.0 | 0.0 | 0.05 | 0.40 | 0.40 | 98 | 1002.8 |
| 20260505085905 | 61 | 222 | 0.0 | 0.0 | 0.00 | 0.39 | 0.39 | 98 | 1003.1 |
| 20260505085403 | 61 | 207 | 0.0 | 2.0 | 0.07 | 0.39 | 0.39 | 98 | 1003.1 |
| 20260505084900 | 61 | 218 | 1.0 | 2.0 | 0.07 | 0.38 | 0.38 | 98 | 1003.0 |
| 20260505084359 | 62 | 156 | 0.0 | 1.0 | 0.19 | 0.38 | 0.38 | 98 | 1003.0 |
| 20260505083856 | 62 | 160 | 2.0 | 3.0 | 0.31 | 0.37 | 0.37 | 98 | 1003.2 |
| 20260505083354 | 62 | 205 | 1.0 | 2.0 | 0.38 | 0.35 | 0.35 | 98 | 1003.6 |
| 20260505082849 | 62 | 222 | 1.0 | 1.0 | 0.26 | 0.32 | 0.32 | 98 | 1003.6 |
| 20260505082346 | 62 | 255 | 0.0 | 3.0 | 0.07 | 0.29 | 0.29 | 98 | 1003.4 |
| 20260505081843 | 62 | 274 | 1.0 | 1.0 | 0.00 | 0.28 | 0.28 | 98 | 1003.3 |
| 20260505081339 | 62 | 295 | 1.0 | 5.0 | 0.00 | 0.28 | 0.28 | 98 | 1003.1 |
| 20260505080836 | 62 | 280 | 3.0 | 3.0 | 0.00 | 0.28 | 0.28 | 97 | 1002.7 |
| 20260505080332 | 62 | 268 | 0.0 | 2.0 | 0.00 | 0.28 | 0.28 | 97 | 1002.5 |
| 20260505075827 | 62 | 266 | 1.0 | 1.0 | 0.00 | 0.28 | 0.28 | 97 | 1002.5 |
| 20260505075325 | 62 | 218 | 1.0 | 2.0 | 0.00 | 0.28 | 0.28 | 97 | 1002.3 |
| 20260505074822 | 62 | 197 | 1.0 | 5.0 | 0.00 | 0.28 | 0.28 | 97 | 1001.8 |
| 20260505074319 | 62 | 139 | 4.0 | 5.0 | 0.00 | 0.28 | 0.28 | 97 | 1001.8 |
| 20260505073816 | 62 | 190 | 1.0 | 5.0 | 0.00 | 0.28 | 0.28 | 97 | 1002.4 |
| 20260505073314 | 62 | 160 | 3.0 | 5.0 | 0.00 | 0.28 | 0.28 | 97 | 1003.0 |
| 20260505072811 | 62 | 213 | 2.0 | 6.0 | 0.00 | 0.28 | 0.28 | 97 | 1002.8 |
| 20260505072307 | 62 | 230 | 4.0 | 6.0 | 0.00 | 0.28 | 0.28 | 97 | 1003.4 |
| 20260505071803 | 62 | 144 | 3.0 | 7.0 | 0.07 | 0.28 | 0.28 | 97 | 1003.6 |
| 20260505071300 | 62 | 154 | 3.0 | 3.0 | 0.07 | 0.28 | 0.28 | 96 | 1003.8 |
| 20260505070758 | 62 | 170 | 0.0 | 2.0 | 0.05 | 0.26 | 0.26 | 96 | 1003.9 |
| 20260505070254 | 63 | 213 | 2.0 | 2.0 | 0.05 | 0.26 | 0.26 | 96 | 1004.6 |
| 20260505065749 | 63 | 136 | 2.0 | 5.0 | 0.07 | 0.26 | 0.26 | 96 | 1005.2 |
| 20260505065246 | 63 | 156 | 2.0 | 3.0 | 0.12 | 0.24 | 0.24 | 95 | 1005.5 |
| 20260505064743 | 63 | 161 | 3.0 | 3.0 | 0.19 | 0.23 | 0.23 | 95 | 1005.1 |
| 20260505064241 | 63 | 219 | 1.0 | 1.0 | 0.19 | 0.22 | 0.22 | 95 | 1005.7 |
| 20260505063738 | 63 | 250 | 0.0 | 0.0 | 0.19 | 0.20 | 0.20 | 94 | 1005.8 |
| 20260505063234 | 63 | 250 | 0.0 | 1.0 | 0.26 | 0.19 | 0.19 | 94 | 1005.9 |
| 20260505062731 | 63 | 263 | 0.0 | 1.0 | 0.26 | 0.17 | 0.17 | 93 | 1005.9 |
| 20260505062229 | 64 | 288 | 2.0 | 5.0 | 0.33 | 0.15 | 0.15 | 93 | 1006.4 |
| 20260505061725 | 64 | 285 | 2.0 | 6.0 | 0.26 | 0.12 | 0.12 | 92 | 1006.7 |
| 20260505061223 | 64 | 298 | 3.0 | 6.0 | 0.19 | 0.09 | 0.09 | 90 | 1006.4 |
| 20260505060720 | 64 | 244 | 0.0 | 2.0 | 0.19 | 0.07 | 0.07 | 89 | 1005.7 |
| 20260505060217 | 65 | 223 | 1.0 | 2.0 | 0.19 | 0.06 | 0.06 | 87 | 1005.4 |
| 20260505055713 | 66 | 259 | 1.0 | 2.0 | 0.12 | 0.03 | 0.03 | 85 | 1005.2 |
| 20260505055209 | 67 | 282 | 2.0 | 6.0 | 0.07 | 0.01 | 0.01 | 82 | 1004.9 |
| 20260505054707 | 67 | 235 | 0.0 | 2.0 | 0.07 | 0.01 | 0.01 | 79 | 1004.5 |
| 20260505054204 | 68 | 199 | 2.0 | 3.0 | 0.00 | 0.00 | 0.00 | 77 | 1004.1 |
| 20260505053702 | 69 | 209 | 2.0 | 5.0 | 0.00 | 0.00 | 0.00 | 75 | 1004.2 |
| 20260505053158 | 69 | 220 | 2.0 | 2.0 | 0.00 | 0.00 | 0.00 | 73 | 1003.9 |
| 20260505052655 | 69 | 214 | 2.0 | 3.0 | 0.00 | 0.00 | 0.00 | 72 | 1003.6 |
| 20260505052153 | 69 | 192 | 1.0 | 3.0 | 0.00 | 0.00 | 0.00 | 71 | 1003.7 |
| 20260505051649 | 69 | 166 | 2.0 | 3.0 | 0.00 | 0.00 | 0.00 | 70 | 1003.4 |
| 20260505051148 | 69 | 165 | 3.0 | 6.0 | 0.00 | 0.00 | 0.00 | 70 | 1003.6 |
| 20260505050645 | 69 | 192 | 1.0 | 5.0 | 0.00 | 0.00 | 0.00 | 71 | 1003.6 |
| 20260505050144 | 69 | 222 | 1.0 | 6.0 | 0.00 | 0.00 | 0.00 | 71 | 1003.5 |
| 20260505041619 | 70 | 209 | 2.0 | 3.0 | 0.00 | 0.00 | 0.00 | 70 | 1003.8 |
| 20260505041116 | 70 | 178 | 2.0 | 3.0 | 0.00 | 0.00 | 0.00 | 69 | 1003.6 |
| 20260505040613 | 70 | 176 | 2.0 | 3.0 | 0.00 | 0.00 | 0.00 | 69 | 1003.7 |
| 20260505040110 | 70 | 184 | 2.0 | 3.0 | 0.00 | 0.00 | 0.00 | 68 | 1003.7 |
| 20260505035607 | 70 | 161 | 4.0 | 7.0 | 0.00 | 0.00 | 0.00 | 69 | 1003.7 |
| 20260505035103 | 70 | 167 | 3.0 | 5.0 | 0.00 | 0.00 | 0.00 | 69 | 1003.7 |
| 20260505034600 | 70 | 187 | 2.0 | 6.0 | 0.00 | 0.00 | 0.00 | 69 | 1004.0 |
| 20260505034056 | 70 | 182 | 3.0 | 5.0 | 0.00 | 0.00 | 0.00 | 69 | 1004.1 |
| 20260505033553 | 70 | 183 | 3.0 | 3.0 | 0.00 | 0.00 | 0.00 | 69 | 1004.3 |
| 20260505033052 | 70 | 175 | 2.0 | 3.0 | 0.00 | 0.00 | 0.00 | 69 | 1004.2 |
| 20260505032549 | 70 | 175 | 1.0 | 3.0 | 0.00 | 0.00 | 0.00 | 69 | 1004.1 |
| 20260505032045 | 71 | 156 | 3.0 | 5.0 | 0.00 | 0.00 | 0.00 | 68 | 1004.3 |
| 20260505031543 | 71 | 186 | 1.0 | 5.0 | 0.00 | 0.00 | 0.00 | 68 | 1004.0 |
| 20260505031039 | 71 | 171 | 2.0 | 5.0 | 0.00 | 0.00 | 0.00 | 67 | 1003.9 |
| 20260505030536 | 71 | 170 | 2.0 | 5.0 | 0.00 | 0.00 | 0.00 | 67 | 1004.1 |
| 20260505030032 | 71 | 182 | 3.0 | 3.0 | 0.00 | 0.00 | 0.00 | 67 | 1003.9 |
| 20260505025528 | 71 | 201 | 3.0 | 5.0 | 0.00 | 0.00 | 0.00 | 66 | 1003.8 |
| 20260505025028 | 71 | 194 | 4.0 | 6.0 | 0.00 | 0.00 | 0.00 | 66 | 1004.1 |
| 20260505024524 | 71 | 183 | 3.0 | 3.0 | 0.00 | 0.00 | 0.00 | 66 | 1004.0 |
| 20260505024021 | 71 | 197 | 3.0 | 6.0 | 0.00 | 0.00 | 0.00 | 65 | 1004.0 |
| 20260505023518 | 71 | 197 | 3.0 | 3.0 | 0.00 | 0.00 | 0.00 | 66 | 1004.0 |
| 20260505023016 | 71 | 186 | 3.0 | 3.0 | 0.00 | 0.00 | 0.00 | 66 | 1003.7 |
| 20260505022513 | 71 | 158 | 2.0 | 5.0 | 0.00 | 0.00 | 0.00 | 66 | 1004.1 |
| 20260505022010 | 71 | 166 | 1.0 | 3.0 | 0.00 | 0.00 | 0.00 | 66 | 1003.8 |
| 20260505021506 | 72 | 170 | 2.0 | 6.0 | 0.00 | 0.00 | 0.00 | 65 | 1003.6 |
| 20260505021003 | 72 | 149 | 3.0 | 5.0 | 0.00 | 0.00 | 0.00 | 66 | 1003.8 |
| 20260505020458 | 72 | 163 | 3.0 | 5.0 | 0.00 | 0.00 | 0.00 | 65 | 1003.7 |
| 20260505015954 | 72 | 172 | 3.0 | 5.0 | 0.00 | 0.00 | 0.00 | 66 | 1003.6 |
| 20260505015452 | 72 | 183 | 1.0 | 6.0 | 0.00 | 0.00 | 0.00 | 66 | 1003.5 |
| 20260505014949 | 72 | 203 | 1.0 | 3.0 | 0.00 | 0.00 | 0.00 | 65 | 1003.6 |
| 20260505014445 | 72 | 196 | 1.0 | 3.0 | 0.00 | 0.00 | 0.00 | 65 | 1003.3 |
| 20260505013943 | 72 | 182 | 1.0 | 2.0 | 0.00 | 0.00 | 0.00 | 65 | 1003.4 |
| 20260505013440 | 72 | 164 | 3.0 | 5.0 | 0.00 | 0.00 | 0.00 | 64 | 1003.5 |
| 20260505012937 | 72 | 166 | 2.0 | 6.0 | 0.00 | 0.00 | 0.00 | 65 | 1003.6 |
| 20260505012435 | 72 | 210 | 0.0 | 3.0 | 0.00 | 0.00 | 0.00 | 65 | 1003.4 |
| 20260505011931 | 73 | 165 | 3.0 | 3.0 | 0.00 | 0.00 | 0.00 | 65 | 1003.5 |
| 20260505011427 | 73 | 184 | 2.0 | 3.0 | 0.00 | 0.00 | 0.00 | 65 | 1003.5 |
| 20260505010925 | 73 | 199 | 2.0 | 3.0 | 0.00 | 0.00 | 0.00 | 65 | 1003.4 |
| 20260505010420 | 73 | 77 | 1.0 | 5.0 | 0.00 | 0.00 | 0.00 | 64 | 1003.5 |
| 20260505005916 | 73 | 221 | 1.0 | 5.0 | 0.00 | 0.00 | 0.00 | 63 | 1003.5 |
| 20260505005414 | 73 | 197 | 1.0 | 3.0 | 0.00 | 0.00 | 0.00 | 63 | 1003.3 |
| 20260505004911 | 74 | 190 | 1.0 | 2.0 | 0.00 | 0.00 | 0.00 | 63 | 1003.4 |
| 20260505004408 | 74 | 216 | 0.0 | 3.0 | 0.00 | 0.00 | 0.00 | 62 | 1003.4 |
| 20260505003905 | 74 | 222 | 1.0 | 5.0 | 0.00 | 0.00 | 0.00 | 62 | 1003.4 |
| 20260505003402 | 74 | 185 | 1.0 | 3.0 | 0.00 | 0.00 | 0.00 | 63 | 1003.5 |
| 20260505002858 | 74 | 183 | 0.0 | 3.0 | 0.00 | 0.00 | 0.00 | 62 | 1003.5 |
| 20260505002354 | 75 | 202 | 0.0 | 2.0 | 0.00 | 0.00 | 0.00 | 61 | 1003.4 |
| 20260505001853 | 75 | 263 | 0.0 | 5.0 | 0.00 | 0.00 | 0.00 | 60 | 1003.3 |
| 20260505001349 | 76 | 219 | 0.0 | 2.0 | 0.00 | 0.00 | 0.00 | 60 | 1003.4 |
| 20260505000847 | 75 | 231 | 2.0 | 5.0 | 0.00 | 0.00 | 0.00 | 59 | 1003.2 |
| 20260505000344 | 75 | 244 | 3.0 | 6.0 | 0.00 | 0.00 | 0.00 | 61 | 1003.5 |
| 20260504235841 | 76 | 217 | 2.0 | 5.0 | 0.00 | 0.00 | 0.00 | 61 | 1003.0 |
| 20260504235338 | 76 | 209 | 1.0 | 2.0 | 0.00 | 0.00 | 0.00 | 61 | 1003.1 |
| 20260504234835 | 77 | 184 | 2.0 | 5.0 | 0.00 | 0.00 | 0.00 | 60 | 1003.0 |
| 20260504234332 | 77 | 280 | 1.0 | 5.0 | 0.00 | 0.00 | 0.00 | 57 | 1003.0 |
| 20260504233829 | 77 | 265 | 1.0 | 2.0 | 0.00 | 0.00 | 0.00 | 58 | 1003.1 |
| 20260504233324 | 77 | 281 | 0.0 | 2.0 | 0.00 | 0.00 | 0.00 | 56 | 1003.2 |
| 20260504232821 | 77 | 284 | 2.0 | 3.0 | 0.00 | 0.00 | 0.00 | 57 | 1003.1 |
| 20260504232319 | 77 | 252 | 1.0 | 5.0 | 0.00 | 0.00 | 0.00 | 59 | 1003.3 |
| 20260504231815 | 77 | 251 | 1.0 | 1.0 | 0.00 | 0.00 | 0.00 | 59 | 1003.1 |
| 20260504231312 | 77 | 212 | 1.0 | 2.0 | 0.00 | 0.00 | 0.00 | 58 | 1003.0 |
| 20260504230808 | 77 | 218 | 0.0 | 5.0 | 0.00 | 0.00 | 0.00 | 59 | 1003.0 |
| 20260504230306 | 78 | 203 | 3.0 | 10.0 | 0.00 | 0.00 | 0.00 | 57 | 1003.1 |
| 20260504225805 | 79 | 207 | 1.0 | 8.0 | 0.00 | 0.00 | 0.00 | 55 | 1003.1 |
| 20260504225301 | 79 | 268 | 1.0 | 3.0 | 0.00 | 0.00 | 0.00 | 55 | 1003.0 |
| 20260504224758 | 78 | 177 | 2.0 | 3.0 | 0.00 | 0.00 | 0.00 | 56 | 1003.0 |
| 20260504224255 | 78 | 257 | 1.0 | 8.0 | 0.00 | 0.00 | 0.00 | 56 | 1003.0 |
| 20260504223751 | 80 | 181 | 3.0 | 5.0 | 0.00 | 0.00 | 0.00 | 54 | 1002.7 |
| 20260504223247 | 80 | 249 | 2.0 | 5.0 | 0.00 | 0.00 | 0.00 | 53 | 1003.0 |
| 20260504222744 | 81 | 231 | 5.0 | 9.0 | 0.00 | 0.00 | 0.00 | 53 | 1002.8 |
| 20260504222241 | 81 | 252 | 1.0 | 9.0 | 0.00 | 0.00 | 0.00 | 52 | 1002.7 |
| 20260504221738 | 81 | 231 | 1.0 | 5.0 | 0.00 | 0.00 | 0.00 | 54 | 1002.6 |
| 20260504221235 | 80 | 203 | 3.0 | 13.0 | 0.00 | 0.00 | 0.00 | 52 | 1002.9 |
| 20260504220732 | 80 | 205 | 2.0 | 7.0 | 0.00 | 0.00 | 0.00 | 53 | 1002.9 |
| 20260504220229 | 81 | 288 | 2.0 | 3.0 | 0.00 | 0.00 | 0.00 | 51 | 1002.7 |
| 20260504215726 | 82 | 208 | 2.0 | 9.0 | 0.00 | 0.00 | 0.00 | 50 | 1002.8 |
| 20260504215217 | 80 | 219 | 2.0 | 7.0 | 0.00 | 0.00 | 0.00 | 53 | 1002.9 |
| 20260504214713 | 80 | 236 | 2.0 | 8.0 | 0.00 | 0.00 | 0.00 | 54 | 1002.8 |
| 20260504214210 | 82 | 171 | 2.0 | 8.0 | 0.00 | 0.00 | 0.00 | 51 | 1003.0 |
| 20260504213706 | 82 | 212 | 2.0 | 6.0 | 0.00 | 0.00 | 0.00 | 50 | 1003.1 |
| 20260504213203 | 82 | 241 | 1.0 | 5.0 | 0.00 | 0.00 | 0.00 | 50 | 1002.8 |
| 20260504212700 | 82 | 264 | 3.0 | 9.0 | 0.00 | 0.00 | 0.00 | 50 | 1003.2 |
| 20260504212156 | 80 | 175 | 4.0 | 6.0 | 0.00 | 0.00 | 0.00 | 53 | 1003.0 |
| 20260504211654 | 82 | 197 | 2.0 | 9.0 | 0.00 | 0.00 | 0.00 | 53 | 1003.1 |
| 20260504211150 | 81 | 232 | 2.0 | 6.0 | 0.00 | 0.00 | 0.00 | 53 | 1003.1 |
| 20260504210648 | 81 | 174 | 2.0 | 6.0 | 0.00 | 0.00 | 0.00 | 54 | 1003.1 |
| 20260504210144 | 82 | 223 | 3.0 | 8.0 | 0.00 | 0.00 | 0.00 | 52 | 1003.2 |
| 20260504205642 | 83 | 293 | 2.0 | 5.0 | 0.00 | 0.00 | 0.00 | 50 | 1003.2 |
| 20260504205138 | 82 | 187 | 1.0 | 6.0 | 0.00 | 0.00 | 0.00 | 51 | 1003.2 |
| 20260504204637 | 80 | 244 | 1.0 | 7.0 | 0.00 | 0.00 | 0.00 | 55 | 1003.3 |
| 20260504204136 | 82 | 168 | 3.0 | 8.0 | 0.00 | 0.00 | 0.00 | 54 | 1003.6 |
| 20260504203634 | 80 | 176 | 4.0 | 7.0 | 0.00 | 0.00 | 0.00 | 54 | 1003.6 |
| 20260504203131 | 81 | 173 | 5.0 | 9.0 | 0.00 | 0.00 | 0.00 | 52 | 1003.6 |
| 20260504202626 | 81 | 193 | 2.0 | 7.0 | 0.00 | 0.00 | 0.00 | 54 | 1003.8 |
| 20260504202123 | 82 | 168 | 3.0 | 7.0 | 0.00 | 0.00 | 0.00 | 50 | 1004.0 |
| 20260504201619 | 82 | 232 | 3.0 | 14.0 | 0.00 | 0.00 | 0.00 | 50 | 1004.0 |
| 20260504201118 | 82 | 241 | 6.0 | 9.0 | 0.00 | 0.00 | 0.00 | 50 | 1003.8 |
| 20260504200614 | 80 | 180 | 3.0 | 6.0 | 0.00 | 0.00 | 0.00 | 53 | 1003.9 |
| 20260504200111 | 82 | 194 | 3.0 | 9.0 | 0.00 | 0.00 | 0.00 | 52 | 1003.7 |
| 20260504195607 | 81 | 169 | 5.0 | 11.0 | 0.00 | 0.00 | 0.00 | 53 | 1003.9 |
| 20260504195103 | 81 | 226 | 3.0 | 7.0 | 0.00 | 0.00 | 0.00 | 53 | 1004.1 |
| 20260504194600 | 81 | 257 | 1.0 | 8.0 | 0.00 | 0.00 | 0.00 | 56 | 1004.1 |
| 20260504194055 | 81 | 231 | 1.0 | 8.0 | 0.00 | 0.00 | 0.00 | 52 | 1004.1 |
| 20260504193552 | 82 | 234 | 2.0 | 5.0 | 0.00 | 0.00 | 0.00 | 54 | 1004.2 |
| 20260504193051 | 82 | 214 | 2.0 | 10.0 | 0.00 | 0.00 | 0.00 | 52 | 1004.1 |
| 20260504192549 | 82 | 106 | 4.0 | 11.0 | 0.00 | 0.00 | 0.00 | 50 | 1004.3 |
| 20260504192046 | 81 | 207 | 3.0 | 6.0 | 0.00 | 0.00 | 0.00 | 53 | 1004.4 |
| 20260504191544 | 81 | 200 | 2.0 | 5.0 | 0.00 | 0.00 | 0.00 | 54 | 1004.4 |
| 20260504191040 | 81 | 259 | 1.0 | 7.0 | 0.00 | 0.00 | 0.00 | 53 | 1004.6 |
| 20260504190537 | 81 | 284 | 2.0 | 13.0 | 0.00 | 0.00 | 0.00 | 51 | 1004.5 |
| 20260504190033 | 82 | 181 | 3.0 | 6.0 | 0.00 | 0.00 | 0.00 | 52 | 1004.4 |
| 20260504185530 | 82 | 224 | 2.0 | 3.0 | 0.00 | 0.00 | 0.00 | 50 | 1004.4 |
| 20260504185026 | 81 | 246 | 5.0 | 10.0 | 0.00 | 0.00 | 0.00 | 49 | 1004.6 |
| 20260504184522 | 81 | 218 | 3.0 | 8.0 | 0.00 | 0.00 | 0.00 | 49 | 1004.5 |
| 20260504184017 | 81 | 247 | 4.0 | 5.0 | 0.00 | 0.00 | 0.00 | 50 | 1004.4 |
| 20260504183515 | 81 | 262 | 2.0 | 7.0 | 0.00 | 0.00 | 0.00 | 52 | 1004.3 |
| 20260504183013 | 80 | 255 | 1.0 | 16.0 | 0.00 | 0.00 | 0.00 | 53 | 1004.3 |
| 20260504182509 | 80 | 289 | 5.0 | 7.0 | 0.00 | 0.00 | 0.00 | 50 | 1004.4 |
| 20260504182007 | 80 | 298 | 3.0 | 13.0 | 0.00 | 0.00 | 0.00 | 51 | 1004.5 |
| 20260504181504 | 79 | 202 | 5.0 | 7.0 | 0.00 | 0.00 | 0.00 | 51 | 1004.6 |
| 20260504181003 | 80 | 192 | 4.0 | 6.0 | 0.00 | 0.00 | 0.00 | 51 | 1004.4 |
| 20260504180501 | 78 | 195 | 5.0 | 9.0 | 0.00 | 0.00 | 0.00 | 52 | 1004.5 |
| 20260504175959 | 78 | 174 | 2.0 | 6.0 | 0.00 | 0.00 | 0.00 | 55 | 1004.5 |
| 20260504175456 | 78 | 174 | 3.0 | 9.0 | 0.00 | 0.00 | 0.00 | 54 | 1004.7 |
| 20260504174953 | 79 | 164 | 2.0 | 8.0 | 0.00 | 0.00 | 0.00 | 53 | 1004.7 |
| 20260504174451 | 79 | 145 | 3.0 | 6.0 | 0.00 | 0.00 | 0.00 | 52 | 1004.7 |
| 20260504173948 | 79 | 294 | 5.0 | 13.0 | 0.00 | 0.00 | 0.00 | 53 | 1004.9 |
| 20260504173444 | 79 | 259 | 2.0 | 9.0 | 0.00 | 0.00 | 0.00 | 52 | 1004.7 |
| 20260504172942 | 79 | 103 | 3.0 | 9.0 | 0.00 | 0.00 | 0.00 | 52 | 1004.7 |
| 20260504172437 | 79 | 153 | 1.0 | 3.0 | 0.00 | 0.00 | 0.00 | 53 | 1004.6 |
| 20260504171934 | 78 | 134 | 3.0 | 7.0 | 0.00 | 0.00 | 0.00 | 53 | 1004.6 |
| 20260504171431 | 78 | 288 | 2.0 | 6.0 | 0.00 | 0.00 | 0.00 | 52 | 1004.8 |
| 20260504170928 | 77 | 317 | 2.0 | 7.0 | 0.00 | 0.00 | 0.00 | 52 | 1004.9 |
| 20260504170424 | 77 | 168 | 4.0 | 14.0 | 0.00 | 0.00 | 0.00 | 54 | 1005.1 |
| 20260504160343 | 75 | 210 | 3.0 | 7.0 | 0.00 | 0.00 | 0.00 | 58 | 1005.4 |
| 20260504150808 | 72 | 168 | 7.0 | 9.0 | 0.00 | 0.00 | 0.00 | 60 | 1005.7 |
| 20260504150305 | 71 | 194 | 2.0 | 10.0 | 0.00 | 0.00 | 0.00 | 58 | 1005.6 |
| 20260504141235 | 70 | 214 | 2.0 | 10.0 | 0.00 | 0.00 | 0.00 | 59 | 1006.4 |
| 20260504140731 | 69 | 246 | 3.0 | 8.0 | 0.00 | 0.00 | 0.00 | 60 | 1006.5 |
| 20260504140227 | 69 | 287 | 1.0 | 3.0 | 0.00 | 0.00 | 0.00 | 60 | 1006.6 |
| 20260504130655 | 67 | 183 | 2.0 | 5.0 | 0.00 | 0.00 | 0.00 | 64 | 1006.8 |
| 20260504130151 | 66 | 175 | 2.0 | 3.0 | 0.00 | 0.00 | 0.00 | 64 | 1006.7 |